Orbital Elements at Epoch 2459200.5 (2020-Dec-17.0) TDB
Reference: JPL 28 (heliocentric ecliptic J2000)
Element | Value | Uncertainty (1-sigma) | Units |
e | .157728498655427 | 3.268e-08 | |
a | 2.233372449551448 | 6.6927e-09 | au |
q | 1.881105966145304 | 7.4643e-08 | au |
i | 2.905952125276993 | 3.523e-06 | deg |
node | 319.8725365720588 | 7.2933e-05 | deg |
peri | 316.5927602981633 | 7.3803e-05 | deg |
M | 248.3623038137504 | 1.1979e-05 | deg |
tp | 2459578.549374099194 (2021-Dec-30.04937410) | 4.1018e-05 | TDB |
period | 1219.102322289531 3.34 | 5.4799e-06 1.5e-08 | d yr |
n | .2952992488144091 | 1.3274e-09 | deg/d |
Q | 2.585638932957591 | 7.7484e-09 | au |
|
| | Orbit Determination Parameters
Additional Information
|